Home > Weather > Nagercoil > Past weeks

Flag for India Past Weather in Nagercoil, Tamil Nadu, India — Yesterday and Last 2 Weeks

Now
84 °F

Thunderstorms. Broken clouds.


Feels Like: 96 °F
Forecast: 79 / 89 °F
Wind: 9 mph from Northwest

Location: Thiruvananthapuram

Current Time: May 27, 2016 at 10:19:58 AM

Latest Report: May 27, 2016 at 9:30 AM


Visibility: 2 mi

Pressure: 29.83 "Hg

Humidity: 84%

Dew Point: 79 °F

Location of NagercoilLocation

Past Weather in Nagercoil — Graph

°F

Nagercoil Temperature Yesterday

Maximum temperature yesterday: 91 °F (at 11:30 AM)
Minimum temperature yesterday: 81 °F (at 12:30 AM)
Average temperature yesterday: 86 °F

High & Low Weather Summary for the Past Weeks

 TemperatureHumidityPressure
High93 °F (May 14, 1:00 PM)100% (May 17, 1:30 AM)29.86 "Hg (May 17, 1:30 AM)
Low75 °F (May 17, 11:30 PM)59% (May 12, 4:00 PM)29.59 "Hg (May 16, 3:30 PM)
Average84 °F84%29.74 "Hg
* Reported May 12 8:30 AM — May 27 9:00 AM, Nagercoil, Weather by CustomWeather, © 2016

Note: Actual official high and low records may vary slightly from our data, if they occured in-between our weather recording intervals... More about our weather records

Advertising

Nagercoil Weather History for the Previous 24 Hours

Scroll right to see more
 ConditionsComfort  
Time TempWeatherWind HumidityBarometerVisibility
9:00 AM
Fri, May 27
84 °FThunderstorms. Scattered clouds.12 mph84%29.86 "Hg2 mi
8:30 AM86 °FScattered clouds.7 mph79%29.83 "Hg3 mi
8:00 AM84 °FThunderstorms. Scattered clouds.6 mph84%29.83 "Hg2 mi
7:00 AM82 °FScattered clouds.5 mph89%29.80 "Hg2 mi
6:30 AM82 °FPassing clouds.5 mph89%29.80 "Hg2 mi
6:00 AM82 °FFog.5 mph89%29.80 "Hg1 mi
5:30 AM82 °FPassing clouds.5 mph89%29.77 "Hg2 mi
4:30 AM82 °FPassing clouds.5 mph89%29.77 "Hg2 mi
3:30 AM82 °FPassing clouds.5 mph94%29.77 "Hg2 mi
2:30 AM82 °FPassing clouds.5 mph89%29.77 "Hg2 mi
1:30 AM84 °FPassing clouds.5 mph89%29.80 "Hg2 mi
12:30 AM84 °FPassing clouds.5 mph89%29.80 "Hg2 mi
11:30 PM
Thu, May 26
84 °FPassing clouds.8 mph89%29.80 "Hg2 mi
10:30 PM86 °FPassing clouds.6 mph84%29.83 "Hg2 mi
10:00 PM86 °FPassing clouds.6 mph84%29.83 "Hg2 mi
9:30 PM86 °FPassing clouds.7 mph84%29.80 "Hg2 mi
9:00 PM86 °FPassing clouds.8 mph84%29.80 "Hg2 mi
8:30 PM86 °FPassing clouds.8 mph79%29.80 "Hg2 mi
8:00 PM86 °FPassing clouds.7 mph84%29.80 "Hg2 mi
7:30 PM86 °FPassing clouds.8 mph84%29.77 "Hg2 mi
7:00 PM86 °FSmoke.5 mph79%29.77 "HgN/A
6:30 PM86 °FPartly sunny.10 mph84%29.74 "Hg2 mi
6:00 PM86 °FPartly sunny.12 mph84%29.74 "Hg2 mi
5:30 PM88 °FBroken clouds.10 mph75%29.74 "Hg2 mi
5:00 PM88 °FBroken clouds.12 mph75%29.74 "Hg4 mi
4:30 PM88 °FBroken clouds.14 mph75%29.74 "Hg4 mi
4:00 PM90 °FScattered clouds.14 mph71%29.74 "Hg4 mi
3:30 PM90 °FScattered clouds.13 mph67%29.74 "Hg4 mi
3:00 PM90 °FScattered clouds.12 mph71%29.74 "Hg4 mi
2:30 PM90 °FScattered clouds.13 mph71%29.74 "Hg4 mi
2:00 PM90 °FScattered clouds.12 mph71%29.74 "Hg4 mi
1:30 PM88 °FScattered clouds.13 mph75%29.77 "Hg4 mi
1:00 PM90 °FScattered clouds.12 mph75%29.77 "Hg3 mi
12:30 PM90 °FScattered clouds.12 mph71%29.80 "Hg3 mi
12:00 PM90 °FScattered clouds.13 mph75%29.80 "Hg3 mi
11:30 AM91 °FScattered clouds.13 mph63%29.80 "Hg3 mi
11:00 AM88 °FScattered clouds.12 mph84%29.83 "Hg3 mi
10:30 AM88 °FScattered clouds.12 mph75%29.83 "Hg3 mi
10:00 AM90 °FScattered clouds.10 mph71%29.83 "Hg3 mi
Weather by CustomWeather, © 2016

See weather overviewHow to use our weather pages